Time,TemperatureF,DewpointF,PressureIn,WindDirection,WindDirectionDegrees,WindSpeedMPH,WindSpeedGustMPH,Humidity,HourlyPrecipIn,Conditions,Clouds,dailyrainin,SolarRadiationWatts/m^2,SoftwareType,DateUTC
2013-02-08 00:00:00,36.2,33.3,29.86,NW,307,2.2,3.5,89,0.00,RA,,0.00,0.0,WeatherDisplay:10.37,2013-02-07 23:00:00,
2013-02-08 00:05:00,36.1,33.2,29.86,NW,307,2.1,3.5,89,0.00,RA,,0.00,0.0,WeatherDisplay:10.37,2013-02-07 23:05:00,
2013-02-08 00:10:00,36.0,33.1,29.86,NW,307,0.0,0.0,89,0.00,RA,,0.00,0.0,WeatherDisplay:10.37,2013-02-07 23:10:00,
2013-02-08 00:15:00,35.8,32.9,29.86,NW,307,0.3,1.1,89,0.00,RA,,0.00,0.0,WeatherDisplay:10.37,2013-02-07 23:15:00,
2013-02-08 00:20:00,35.7,32.8,29.86,NW,307,0.0,0.0,89,0.00,RA,,0.00,0.0,WeatherDisplay:10.37,2013-02-07 23:20:00,
2013-02-08 00:25:00,35.6,32.7,29.86,NW,307,2.4,3.5,89,0.00,RA,,0.00,0.0,WeatherDisplay:10.37,2013-02-07 23:25:00,
2013-02-08 00:30:00,35.9,33.2,29.86,NW,318,3.9,6.9,90,0.00,SCT,,0.00,0.0,WeatherDisplay:10.37,2013-02-07 23:30:00,
2013-02-08 00:35:00,36.2,33.5,29.86,NW,311,4.4,5.8,90,0.00,SCT,,0.00,0.0,WeatherDisplay:10.37,2013-02-07 23:35:00,
2013-02-08 00:40:00,36.3,33.6,29.86,NW,311,1.4,1.4,90,0.00,SCT,,0.00,0.0,WeatherDisplay:10.37,2013-02-07 23:40:00,
2013-02-08 00:45:00,36.4,33.4,29.86,NW,311,2.2,4.6,89,0.00,SCT,,0.00,0.0,WeatherDisplay:10.37,2013-02-07 23:45:00,
2013-02-08 00:50:00,36.6,33.6,29.86,NW,311,4.5,6.9,89,0.00,SCT,,0.00,0.0,WeatherDisplay:10.37,2013-02-07 23:50:00,
2013-02-08 00:55:00,36.8,33.6,29.86,NW,307,3.9,6.9,88,0.00,SCT,,0.00,0.0,WeatherDisplay:10.37,2013-02-07 23:55:00,
2013-02-08 01:00:00,37.1,33.6,29.86,NW,308,3.5,5.0,87,0.00,SCT,,0.00,0.0,WeatherDisplay:10.37,2013-02-08 00:00:00,
2013-02-08 01:05:00,37.2,33.7,29.86,NW,308,0.0,1.1,87,0.00,SCT,,0.00,0.0,WeatherDisplay:10.37,2013-02-08 00:05:00,
2013-02-08 01:10:00,37.3,34.1,29.86,NNW,338,4.2,8.1,88,0.00,SCT,,0.00,0.0,WeatherDisplay:10.37,2013-02-08 00:10:00,
2013-02-08 01:15:00,37.4,34.2,29.86,NNW,327,3.6,6.9,88,0.00,SCT,,0.00,0.0,WeatherDisplay:10.37,2013-02-08 00:15:00,
2013-02-08 01:20:00,37.3,33.8,29.86,North,356,7.0,9.2,87,0.00,SCT,,0.00,0.0,WeatherDisplay:10.37,2013-02-08 00:20:00,
2013-02-08 01:25:00,36.8,33.3,29.86,NW,321,5.3,10.4,87,0.00,SCT,,0.00,0.0,WeatherDisplay:10.37,2013-02-08 00:25:00,
2013-02-08 01:30:00,36.2,33.3,29.86,NNW,342,6.4,8.1,89,0.00,SCT,,0.00,0.0,WeatherDisplay:10.37,2013-02-08 00:30:00,
2013-02-08 01:35:00,35.9,33.2,29.87,North,351,7.1,10.4,90,0.01,RA,,0.01,0.0,WeatherDisplay:10.37,2013-02-08 00:35:00,
2013-02-08 01:40:00,35.7,33.0,29.87,NNW,338,6.9,9.0,90,0.02,RA,,0.02,0.0,WeatherDisplay:10.37,2013-02-08 00:40:00,
2013-02-08 01:45:00,34.9,32.2,29.87,North,351,4.7,7.0,90,0.02,RA,,0.02,0.0,WeatherDisplay:10.37,2013-02-08 00:45:00,
2013-02-08 01:50:00,34.3,31.9,29.86,NNW,340,2.0,3.5,91,0.02,RA,,0.02,0.0,WeatherDisplay:10.37,2013-02-08 00:50:00,
2013-02-08 01:55:00,33.9,31.5,29.86,NNW,340,2.9,4.6,91,0.03,RA,,0.03,0.0,WeatherDisplay:10.37,2013-02-08 00:55:00,
2013-02-08 02:00:00,33.8,31.7,29.86,NNW,340,1.7,3.5,92,0.04,RA,,0.04,0.0,WeatherDisplay:10.37,2013-02-08 01:00:00,
2013-02-08 02:05:00,33.8,31.7,29.86,NNW,340,0.0,2.3,92,0.04,RA,,0.04,0.0,WeatherDisplay:10.37,2013-02-08 01:05:00,
2013-02-08 02:10:00,33.9,32.1,29.86,NNW,340,0.6,3.5,93,0.04,RA,,0.04,0.0,WeatherDisplay:10.37,2013-02-08 01:10:00,
2013-02-08 02:15:00,34.0,32.2,29.86,NNW,340,0.0,1.1,93,0.04,RA,,0.04,0.0,WeatherDisplay:10.37,2013-02-08 01:15:00,
2013-02-08 02:20:00,34.1,32.3,29.86,NNW,340,0.0,2.3,93,0.05,RA,,0.05,0.0,WeatherDisplay:10.37,2013-02-08 01:20:00,
2013-02-08 02:25:00,34.3,32.5,29.86,NNW,340,0.0,2.3,93,0.05,RA,,0.05,0.0,WeatherDisplay:10.37,2013-02-08 01:25:00,
2013-02-08 02:30:00,34.5,32.9,29.86,NNW,340,0.2,2.3,94,0.06,RA,,0.06,0.0,WeatherDisplay:10.37,2013-02-08 01:30:00,
2013-02-08 02:35:00,34.7,33.1,29.86,NNW,340,0.0,1.1,94,0.05,RA,,0.06,0.0,WeatherDisplay:10.37,2013-02-08 01:35:00,
2013-02-08 02:40:00,34.9,33.3,29.86,NNW,340,0.3,1.0,94,0.03,RA,,0.06,0.0,WeatherDisplay:10.37,2013-02-08 01:40:00,
2013-02-08 02:45:00,35.0,33.4,29.86,NNW,340,0.0,1.1,94,0.03,-RA,,0.06,0.0,WeatherDisplay:10.37,2013-02-08 01:45:00,
2013-02-08 02:50:00,35.1,33.5,29.86,NNW,340,0.9,1.1,94,0.04,-RA,,0.06,0.0,WeatherDisplay:10.37,2013-02-08 01:50:00,
2013-02-08 02:55:00,35.1,33.5,29.86,NNW,340,0.4,3.5,94,0.03,-RA,,0.06,0.0,WeatherDisplay:10.37,2013-02-08 01:55:00,
2013-02-08 03:00:00,35.1,33.5,29.86,NNW,340,0.4,1.1,94,0.02,-RA,,0.06,0.0,WeatherDisplay:10.37,2013-02-08 02:00:00,
2013-02-08 03:05:00,35.1,33.5,29.86,NNW,340,0.9,3.5,94,0.02,-RA,,0.06,0.0,WeatherDisplay:10.37,2013-02-08 02:05:00,
2013-02-08 03:10:00,35.1,33.5,29.86,NNW,340,2.5,4.0,94,0.02,-RA,,0.06,0.0,WeatherDisplay:10.37,2013-02-08 02:10:00,
2013-02-08 03:15:00,35.0,33.4,29.86,NNW,340,2.9,4.0,94,0.02,OVC,,0.06,0.0,WeatherDisplay:10.37,2013-02-08 02:15:00,
2013-02-08 03:20:00,35.0,33.4,29.86,NNW,340,0.2,2.3,94,0.02,OVC,,0.06,0.0,WeatherDisplay:10.37,2013-02-08 02:20:00,
2013-02-08 03:25:00,34.9,33.3,29.86,NNW,340,3.0,4.0,94,0.02,OVC,,0.06,0.0,WeatherDisplay:10.37,2013-02-08 02:25:00,
2013-02-08 03:30:00,34.9,33.3,29.86,NNW,340,0.9,2.0,94,0.01,OVC,,0.06,0.0,WeatherDisplay:10.37,2013-02-08 02:30:00,
2013-02-08 03:35:00,34.8,33.2,29.86,NNW,340,0.7,3.5,94,0.01,OVC,,0.06,0.0,WeatherDisplay:10.37,2013-02-08 02:35:00,
2013-02-08 03:40:00,34.8,33.2,29.86,NNW,340,1.4,3.5,94,0.01,OVC,,0.06,0.0,WeatherDisplay:10.37,2013-02-08 02:40:00,
2013-02-08 03:45:00,34.8,33.2,29.86,NNW,340,0.0,0.0,94,0.01,SCT,,0.06,0.0,WeatherDisplay:10.37,2013-02-08 02:45:00,
2013-02-08 03:50:00,34.8,33.2,29.86,NNW,340,0.1,2.3,94,0.00,SCT,,0.06,0.0,WeatherDisplay:10.37,2013-02-08 02:50:00,
2013-02-08 03:55:00,34.7,33.1,29.86,NNW,340,0.0,1.1,94,0.00,SCT,,0.06,0.0,WeatherDisplay:10.37,2013-02-08 02:55:00,
2013-02-08 04:00:00,34.7,33.1,29.86,NNW,340,0.0,0.0,94,0.00,SCT,,0.06,0.0,WeatherDisplay:10.37,2013-02-08 03:00:00,
2013-02-08 04:05:00,34.6,33.0,29.86,NNW,340,0.0,0.0,94,0.00,SCT,,0.06,0.0,WeatherDisplay:10.37,2013-02-08 03:05:00,
2013-02-08 04:10:00,34.6,33.0,29.87,NNW,340,0.0,0.0,94,0.00,SCT,,0.06,0.0,WeatherDisplay:10.37,2013-02-08 03:10:00,
2013-02-08 04:15:00,34.5,32.9,29.87,NNW,340,0.0,0.0,94,0.00,FEW,,0.06,0.0,WeatherDisplay:10.37,2013-02-08 03:15:00,
2013-02-08 04:20:00,34.5,32.9,29.87,NNW,340,0.0,0.0,94,0.00,FEW,,0.06,0.0,WeatherDisplay:10.37,2013-02-08 03:20:00,
2013-02-08 04:25:00,34.6,33.0,29.87,NNW,340,0.0,0.0,94,0.00,FEW,,0.06,0.0,WeatherDisplay:10.37,2013-02-08 03:25:00,
2013-02-08 04:30:00,34.9,33.6,29.87,North,6,5.7,6.9,95,0.00,FEW,,0.06,0.0,WeatherDisplay:10.37,2013-02-08 03:30:00,
2013-02-08 04:35:00,35.0,33.4,29.87,NNE,19,3.1,8.1,94,0.00,FEW,,0.06,0.0,WeatherDisplay:10.37,2013-02-08 03:35:00,
2013-02-08 04:40:00,34.9,33.3,29.87,NNE,20,0.6,3.5,94,0.00,FEW,,0.06,0.0,WeatherDisplay:10.37,2013-02-08 03:40:00,
2013-02-08 04:45:00,34.9,33.3,29.87,NNE,16,2.7,7.0,94,0.01,RA,,0.07,0.0,WeatherDisplay:10.37,2013-02-08 03:45:00,
2013-02-08 04:50:00,34.8,33.2,29.88,North,5,4.0,4.0,94,0.01,RA,,0.07,0.0,WeatherDisplay:10.37,2013-02-08 03:50:00,
2013-02-08 04:55:00,34.7,33.1,29.88,North,1,1.1,3.5,94,0.01,RA,,0.07,0.0,WeatherDisplay:10.37,2013-02-08 03:55:00,
2013-02-08 05:00:00,34.6,33.0,29.88,North,9,3.0,3.5,94,0.01,RA,,0.07,0.0,WeatherDisplay:10.37,2013-02-08 04:00:00,
2013-02-08 05:05:00,34.6,33.0,29.88,NNE,12,5.4,11.5,94,0.01,RA,,0.07,0.0,WeatherDisplay:10.37,2013-02-08 04:05:00,
2013-02-08 05:10:00,34.7,33.1,29.88,North,5,6.4,10.4,94,0.01,BKN,,0.07,0.0,WeatherDisplay:10.37,2013-02-08 04:10:00,
2013-02-08 05:15:00,34.5,32.9,29.88,NNE,28,2.7,6.0,94,0.01,SCT,,0.07,0.0,WeatherDisplay:10.37,2013-02-08 04:15:00,
2013-02-08 05:20:00,34.4,32.8,29.88,North,1,3.3,4.6,94,0.01,SCT,,0.07,0.0,WeatherDisplay:10.37,2013-02-08 04:20:00,
2013-02-08 05:25:00,34.2,32.6,29.88,NNE,16,3.4,6.0,94,0.01,SCT,,0.07,0.0,WeatherDisplay:10.37,2013-02-08 04:25:00,
2013-02-08 05:30:00,34.2,32.6,29.88,NNE,26,5.2,5.8,94,0.01,SCT,,0.07,0.0,WeatherDisplay:10.37,2013-02-08 04:30:00,
2013-02-08 05:35:00,34.2,32.6,29.89,NNE,18,5.8,6.9,94,0.01,SCT,,0.07,0.0,WeatherDisplay:10.37,2013-02-08 04:35:00,
2013-02-08 05:40:00,34.2,32.6,29.89,North,8,2.6,4.6,94,0.01,SCT,,0.07,0.0,WeatherDisplay:10.37,2013-02-08 04:40:00,
2013-02-08 05:45:00,34.3,32.5,29.89,NE,40,4.5,6.9,93,0.00,SCT,,0.07,0.0,WeatherDisplay:10.37,2013-02-08 04:45:00,
2013-02-08 05:50:00,34.3,32.5,29.89,NNE,20,3.4,5.8,93,0.00,SCT,,0.07,0.0,WeatherDisplay:10.37,2013-02-08 04:50:00,
2013-02-08 05:55:00,34.4,32.6,29.89,NNE,21,4.6,8.1,93,0.00,SCT,,0.07,0.0,WeatherDisplay:10.37,2013-02-08 04:55:00,
2013-02-08 06:00:00,34.4,32.6,29.89,NNE,14,2.9,6.9,93,0.00,SCT,,0.07,0.0,WeatherDisplay:10.37,2013-02-08 05:00:00,
2013-02-08 06:01:00,34.4,32.6,29.89,NNE,14,1.5,4.6,93,0.00,SCT,,0.07,0.0,WeatherDisplay:10.37,2013-02-08 05:01:00,
2013-02-08 06:06:00,34.3,32.2,29.89,NNE,14,0.5,3.5,92,0.00,SCT,,0.07,0.0,WeatherDisplay:10.37,2013-02-08 05:06:00,
2013-02-08 06:11:00,34.1,32.0,29.89,NNE,26,5.2,6.9,92,0.00,OVC,,0.07,0.0,WeatherDisplay:10.37,2013-02-08 05:11:00,
2013-02-08 06:16:00,34.1,32.0,29.90,North,1,3.4,6.9,92,0.00,OVC,,0.07,0.0,WeatherDisplay:10.37,2013-02-08 05:16:00,
2013-02-08 06:21:00,34.0,31.9,29.90,NNE,13,4.5,5.8,92,0.00,OVC,,0.07,0.0,WeatherDisplay:10.37,2013-02-08 05:21:00,
2013-02-08 06:26:00,33.9,31.8,29.90,NNE,24,6.5,9.2,92,0.00,OVC,,0.07,0.0,WeatherDisplay:10.37,2013-02-08 05:26:00,
2013-02-08 06:31:00,33.9,31.8,29.91,North,5,4.3,10.4,92,0.00,BKN,,0.07,0.0,WeatherDisplay:10.37,2013-02-08 05:31:00,
2013-02-08 06:36:00,33.9,31.8,29.91,NNE,28,4.3,6.0,92,0.00,BKN,,0.07,0.0,WeatherDisplay:10.37,2013-02-08 05:36:00,
2013-02-08 06:41:00,33.9,31.8,29.91,North,11,3.6,4.6,92,0.00,BKN,,0.07,0.0,WeatherDisplay:10.37,2013-02-08 05:41:00,
2013-02-08 06:46:00,33.9,31.8,29.91,NE,46,1.1,4.6,92,0.00,BKN,,0.07,0.0,WeatherDisplay:10.37,2013-02-08 05:46:00,
2013-02-08 06:51:00,33.7,31.6,29.91,NE,49,3.0,3.5,92,0.00,BKN,,0.07,0.0,WeatherDisplay:10.37,2013-02-08 05:51:00,
2013-02-08 06:56:00,33.8,31.7,29.91,NNE,20,3.9,6.9,92,0.00,BKN,,0.07,0.0,WeatherDisplay:10.37,2013-02-08 05:56:00,
2013-02-08 07:01:00,33.8,32.0,29.92,NNE,13,4.9,7.0,93,0.00,BKN,,0.07,0.0,WeatherDisplay:10.37,2013-02-08 06:01:00,
2013-02-08 07:06:00,33.8,32.0,29.92,North,8,3.1,4.6,93,0.00,BKN,,0.07,0.0,WeatherDisplay:10.37,2013-02-08 06:06:00,
2013-02-08 07:11:00,33.8,32.0,29.92,North,10,3.8,4.6,93,0.00,BKN,,0.07,0.0,WeatherDisplay:10.37,2013-02-08 06:11:00,
2013-02-08 07:16:00,33.8,32.0,29.92,North,10,2.6,4.6,93,0.00,BKN,,0.07,0.0,WeatherDisplay:10.37,2013-02-08 06:16:00,
2013-02-08 07:21:00,33.8,32.0,29.93,North,11,1.0,2.0,93,0.00,BKN,,0.07,0.0,WeatherDisplay:10.37,2013-02-08 06:21:00,
2013-02-08 07:26:00,33.9,32.1,29.93,North,11,2.2,4.6,93,0.00,BKN,,0.07,0.0,WeatherDisplay:10.37,2013-02-08 06:26:00,
2013-02-08 07:31:00,33.9,32.1,29.93,North,11,0.3,2.0,93,0.00,-RA,,0.07,0.0,WeatherDisplay:10.37,2013-02-08 06:31:00,
2013-02-08 07:36:00,33.9,32.1,29.93,North,11,3.0,5.0,93,0.00,-RA,,0.07,0.0,WeatherDisplay:10.37,2013-02-08 06:36:00,
2013-02-08 07:41:00,33.9,32.1,29.94,North,5,4.4,10.0,93,0.00,-RA,,0.07,0.0,WeatherDisplay:10.37,2013-02-08 06:41:00,
2013-02-08 07:46:00,34.0,32.4,29.94,North,7,2.7,3.5,94,0.00,-RA,,0.07,0.0,WeatherDisplay:10.37,2013-02-08 06:46:00,
2013-02-08 07:51:00,34.0,32.4,29.94,NNE,14,3.3,9.2,94,0.00,-RA,,0.07,0.0,WeatherDisplay:10.37,2013-02-08 06:51:00,
2013-02-08 07:56:00,34.1,32.5,29.94,NNE,21,6.0,8.1,94,0.00,-RA,,0.07,0.0,WeatherDisplay:10.37,2013-02-08 06:56:00,
2013-02-08 08:01:00,34.1,32.5,29.95,NNE,12,5.8,8.1,94,0.00,BKN,,0.07,0.0,WeatherDisplay:10.37,2013-02-08 07:01:00,
2013-02-08 08:06:00,34.1,32.5,29.95,North,6,3.1,5.8,94,0.00,BKN,,0.07,0.0,WeatherDisplay:10.37,2013-02-08 07:06:00,
2013-02-08 08:11:00,34.1,32.3,29.95,NNE,18,3.3,5.0,93,0.00,BKN,,0.07,0.0,WeatherDisplay:10.37,2013-02-08 07:11:00,
2013-02-08 08:16:00,34.2,32.4,29.95,NE,40,1.2,6.0,93,0.00,BKN,,0.07,0.0,WeatherDisplay:10.37,2013-02-08 07:16:00,
2013-02-08 08:21:00,34.2,32.4,29.96,NNE,16,5.2,8.1,93,0.00,BKN,,0.07,5.0,WeatherDisplay:10.37,2013-02-08 07:21:00,
2013-02-08 08:26:00,34.3,32.5,29.96,NNE,16,0.4,3.0,93,0.00,BKN,,0.07,5.0,WeatherDisplay:10.37,2013-02-08 07:26:00,
2013-02-08 08:31:00,34.2,32.4,29.96,NE,36,2.8,10.4,93,0.00,BKN,,0.07,7.0,WeatherDisplay:10.37,2013-02-08 07:31:00,
2013-02-08 08:36:00,34.2,32.4,29.97,NNE,20,4.6,6.9,93,0.00,BKN,,0.07,9.0,WeatherDisplay:10.37,2013-02-08 07:36:00,
2013-02-08 08:41:00,34.2,32.1,29.97,NE,43,3.7,6.9,92,0.00,BKN,,0.07,14.0,WeatherDisplay:10.37,2013-02-08 07:41:00,
2013-02-08 08:46:00,34.3,32.2,29.97,NE,37,3.7,5.8,92,0.00,BKN,,0.07,18.0,WeatherDisplay:10.37,2013-02-08 07:46:00,
2013-02-08 08:51:00,34.3,32.2,29.97,NE,40,2.3,5.0,92,0.00,BKN,,0.07,21.0,WeatherDisplay:10.37,2013-02-08 07:51:00,
2013-02-08 08:56:00,34.4,32.0,29.97,NE,40,3.2,4.0,91,0.01,RA,,0.08,25.0,WeatherDisplay:10.37,2013-02-08 07:56:00,
2013-02-08 09:01:00,34.4,32.0,29.97,NE,40,1.5,3.5,91,0.01,RA,,0.08,32.0,WeatherDisplay:10.37,2013-02-08 08:01:00,
2013-02-08 09:06:00,34.5,32.1,29.97,NW,319,3.8,5.8,91,0.01,RA,,0.08,37.0,WeatherDisplay:10.37,2013-02-08 08:06:00,
2013-02-08 09:11:00,34.5,31.9,29.97,NW,326,0.0,0.0,90,0.01,RA,,0.08,46.0,WeatherDisplay:10.37,2013-02-08 08:11:00,
2013-02-08 09:16:00,34.5,31.9,29.97,NW,326,0.5,3.5,90,0.01,RA,,0.08,46.0,WeatherDisplay:10.37,2013-02-08 08:16:00,
2013-02-08 09:21:00,34.6,31.9,29.97,North,1,2.5,5.0,90,0.01,BKN,,0.08,54.0,WeatherDisplay:10.37,2013-02-08 08:21:00,
2013-02-08 09:26:00,34.6,31.9,29.97,North,1,1.2,3.5,90,0.01,BKN,,0.08,56.0,WeatherDisplay:10.37,2013-02-08 08:26:00,
2013-02-08 09:31:00,34.6,31.7,29.97,North,1,1.9,3.5,89,0.01,BKN,,0.08,44.0,WeatherDisplay:10.37,2013-02-08 08:31:00,
2013-02-08 09:36:00,34.6,31.7,29.97,North,1,0.9,2.3,89,0.01,BKN,,0.08,69.0,WeatherDisplay:10.37,2013-02-08 08:36:00,
2013-02-08 09:41:00,34.7,31.8,29.98,North,1,1.2,4.6,89,0.01,BKN,,0.08,120.0,WeatherDisplay:10.37,2013-02-08 08:41:00,
2013-02-08 09:46:00,34.8,31.9,29.98,North,1,0.0,2.3,89,0.01,BKN,,0.08,220.0,WeatherDisplay:10.37,2013-02-08 08:46:00,
2013-02-08 09:51:00,34.9,31.7,29.98,North,1,0.7,2.3,88,0.01,BKN,,0.08,44.0,WeatherDisplay:10.37,2013-02-08 08:51:00,
2013-02-08 09:56:00,35.0,31.8,29.98,North,1,0.0,0.0,88,0.00,BKN,,0.08,195.0,WeatherDisplay:10.37,2013-02-08 08:56:00,
2013-02-08 10:01:00,35.0,31.5,29.98,North,1,3.1,4.6,87,0.00,BKN,,0.08,204.0,WeatherDisplay:10.37,2013-02-08 09:01:00,
2013-02-08 10:06:00,35.2,31.4,29.98,North,5,0.0,2.3,86,0.00,BKN,,0.08,214.0,WeatherDisplay:10.37,2013-02-08 09:06:00,
2013-02-08 10:11:00,35.4,31.6,29.98,North,1,0.4,1.0,86,0.00,OVC,,0.08,221.0,WeatherDisplay:10.37,2013-02-08 09:11:00,
2013-02-08 10:16:00,35.5,31.4,29.98,North,1,0.0,0.0,85,0.00,OVC,,0.08,237.0,WeatherDisplay:10.37,2013-02-08 09:16:00,
2013-02-08 10:21:00,35.7,31.3,29.98,North,1,1.8,3.5,84,0.00,OVC,,0.08,257.0,WeatherDisplay:10.37,2013-02-08 09:21:00,
2013-02-08 10:26:00,35.9,31.2,29.98,North,1,1.8,3.5,83,0.00,OVC,,0.08,299.0,WeatherDisplay:10.37,2013-02-08 09:26:00,
2013-02-08 10:31:00,36.2,30.9,29.98,North,1,2.0,4.6,81,0.00,OVC,,0.08,297.0,WeatherDisplay:10.37,2013-02-08 09:31:00,
2013-02-08 10:36:00,36.4,30.5,29.98,North,1,2.8,5.0,79,0.00,OVC,,0.08,323.0,WeatherDisplay:10.37,2013-02-08 09:36:00,
2013-02-08 10:41:00,36.6,30.1,29.98,North,1,2.5,3.5,77,0.00,OVC,,0.08,281.0,WeatherDisplay:10.37,2013-02-08 09:41:00,
2013-02-08 10:46:00,36.8,30.6,29.98,North,1,0.0,0.0,78,0.00,OVC,,0.08,369.0,WeatherDisplay:10.37,2013-02-08 09:46:00,
2013-02-08 10:51:00,36.9,30.0,29.98,North,1,0.0,0.0,76,0.00,OVC,,0.08,334.0,WeatherDisplay:10.37,2013-02-08 09:51:00,
2013-02-08 10:56:00,37.0,29.8,29.99,North,5,2.8,5.8,75,0.00,OVC,,0.08,329.0,WeatherDisplay:10.37,2013-02-08 09:56:00,
2013-02-08 11:01:00,37.1,29.9,29.99,North,1,1.1,3.5,75,0.00,OVC,,0.08,338.0,WeatherDisplay:10.37,2013-02-08 10:01:00,
2013-02-08 11:06:00,37.2,29.7,29.99,North,1,0.0,0.0,74,0.00,OVC,,0.08,336.0,WeatherDisplay:10.37,2013-02-08 10:06:00,
2013-02-08 11:11:00,37.5,29.6,29.99,North,1,4.5,5.8,73,0.00,FEW,,0.08,339.0,WeatherDisplay:10.37,2013-02-08 10:11:00,
2013-02-08 11:16:00,37.6,29.0,29.99,North,7,1.2,4.6,71,0.00,FEW,,0.08,281.0,WeatherDisplay:10.37,2013-02-08 10:16:00,
2013-02-08 11:21:00,37.5,28.2,29.99,NE,46,4.4,6.9,69,0.00,FEW,,0.08,200.0,WeatherDisplay:10.37,2013-02-08 10:21:00,
2013-02-08 11:26:00,37.7,29.1,29.99,NE,45,0.0,1.1,71,0.00,FEW,,0.08,352.0,WeatherDisplay:10.37,2013-02-08 10:26:00,
2013-02-08 11:31:00,37.8,28.9,29.99,NE,45,2.2,4.6,70,0.00,FEW,,0.08,373.0,WeatherDisplay:10.37,2013-02-08 10:31:00,
2013-02-08 11:36:00,38.1,29.2,29.99,NNE,30,0.1,1.1,70,0.00,FEW,,0.08,378.0,WeatherDisplay:10.37,2013-02-08 10:36:00,
2013-02-08 11:41:00,38.3,29.0,30.00,NNE,29,0.0,0.0,69,0.00,FEW,,0.08,385.0,WeatherDisplay:10.37,2013-02-08 10:41:00,
2013-02-08 11:46:00,38.4,28.4,30.00,North,356,3.5,5.8,67,0.00,FEW,,0.08,385.0,WeatherDisplay:10.37,2013-02-08 10:46:00,
2013-02-08 11:51:00,38.4,28.0,30.00,NNE,19,4.2,5.0,66,0.00,FEW,,0.08,397.0,WeatherDisplay:10.37,2013-02-08 10:51:00,
2013-02-08 11:56:00,38.4,28.0,30.00,NE,38,3.5,6.0,66,0.00,FEW,,0.08,396.0,WeatherDisplay:10.37,2013-02-08 10:56:00,
2013-02-08 12:01:00,38.5,27.7,30.00,NNE,24,4.7,5.8,65,0.00,FEW,,0.08,397.0,WeatherDisplay:10.37,2013-02-08 11:01:00,
2013-02-08 12:06:00,38.6,28.2,30.00,North,351,4.4,5.8,66,0.00,FEW,,0.08,404.0,WeatherDisplay:10.37,2013-02-08 11:06:00,
2013-02-08 12:11:00,38.7,27.9,30.00,North,356,3.4,5.0,65,0.00,FEW,,0.08,410.0,WeatherDisplay:10.37,2013-02-08 11:11:00,
2013-02-08 12:16:00,38.8,28.0,30.00,North,6,4.9,5.8,65,0.00,FEW,,0.08,466.0,WeatherDisplay:10.37,2013-02-08 11:16:00,
2013-02-08 12:21:00,39.2,28.0,30.00,NNW,342,4.0,9.2,64,0.00,FEW,,0.08,153.0,WeatherDisplay:10.37,2013-02-08 11:21:00,
2013-02-08 12:26:00,39.3,28.1,30.00,North,356,4.1,5.8,64,0.00,BKN,,0.08,193.0,WeatherDisplay:10.37,2013-02-08 11:26:00,
2013-02-08 12:31:00,39.2,28.0,30.00,NNW,340,7.1,10.4,64,0.00,OVC,,0.08,111.0,WeatherDisplay:10.37,2013-02-08 11:31:00,
2013-02-08 12:36:00,38.9,27.3,30.00,NNW,346,4.4,12.7,63,0.00,OVC,,0.08,79.0,WeatherDisplay:10.37,2013-02-08 11:36:00,
2013-02-08 12:41:00,38.6,27.4,30.00,NNW,342,3.9,6.9,64,0.00,OVC,,0.08,127.0,WeatherDisplay:10.37,2013-02-08 11:41:00,
2013-02-08 12:46:00,38.6,27.8,30.00,North,1,2.8,8.1,65,0.00,FEW,,0.08,422.0,WeatherDisplay:10.37,2013-02-08 11:46:00,
2013-02-08 12:51:00,38.9,27.3,30.00,NNW,346,1.9,4.6,63,0.00,FEW,,0.08,422.0,WeatherDisplay:10.37,2013-02-08 11:51:00,
2013-02-08 12:56:00,39.1,27.5,30.00,NNW,346,1.6,5.8,63,0.00,FEW,,0.08,424.0,WeatherDisplay:10.37,2013-02-08 11:56:00,
2013-02-08 13:01:00,39.3,27.3,30.00,North,351,2.1,8.1,62,0.00,OVC,,0.08,366.0,WeatherDisplay:10.37,2013-02-08 12:01:00,
2013-02-08 13:06:00,39.4,27.4,30.00,North,7,3.2,4.6,62,0.00,OVC,,0.08,434.0,WeatherDisplay:10.37,2013-02-08 12:06:00,
2013-02-08 13:11:00,39.5,27.1,30.00,NNW,346,3.1,4.6,61,0.00,OVC,,0.08,403.0,WeatherDisplay:10.37,2013-02-08 12:11:00,
2013-02-08 13:16:00,39.7,27.7,29.99,North,356,2.5,9.2,62,0.00,OVC,,0.08,448.0,WeatherDisplay:10.37,2013-02-08 12:16:00,
2013-02-08 13:21:00,39.9,27.9,30.00,NNW,342,6.8,12.7,62,0.00,OVC,,0.08,487.0,WeatherDisplay:10.37,2013-02-08 12:21:00,
2013-02-08 13:26:00,40.0,27.6,30.00,North,351,2.7,7.0,61,0.00,OVC,,0.08,497.0,WeatherDisplay:10.37,2013-02-08 12:26:00,
2013-02-08 13:31:00,40.0,27.2,30.00,NE,37,3.9,6.9,60,0.00,FEW,,0.08,485.0,WeatherDisplay:10.37,2013-02-08 12:31:00,
2013-02-08 13:36:00,39.8,27.8,30.00,North,351,1.8,9.2,62,0.00,FEW,,0.08,148.0,WeatherDisplay:10.37,2013-02-08 12:36:00,
2013-02-08 13:41:00,39.9,28.3,30.00,North,5,6.7,10.4,63,0.00,FEW,,0.08,243.0,WeatherDisplay:10.37,2013-02-08 12:41:00,
2013-02-08 13:46:00,39.7,28.1,30.00,North,5,2.4,3.5,63,0.00,FEW,,0.08,213.0,WeatherDisplay:10.37,2013-02-08 12:46:00,
2013-02-08 13:51:00,39.9,28.3,30.00,North,1,4.5,8.1,63,0.00,FEW,,0.08,181.0,WeatherDisplay:10.37,2013-02-08 12:51:00,
2013-02-08 13:56:00,39.8,27.8,30.00,NNE,13,5.3,8.1,62,0.00,FEW,,0.08,165.0,WeatherDisplay:10.37,2013-02-08 12:56:00,
2013-02-08 14:01:00,39.6,27.6,30.00,North,356,8.0,10.4,62,0.00,SCT,,0.08,121.0,WeatherDisplay:10.37,2013-02-08 13:01:00,
2013-02-08 14:06:00,39.5,27.9,30.00,NNW,333,8.4,11.5,63,0.00,SCT,,0.08,120.0,WeatherDisplay:10.37,2013-02-08 13:06:00,
2013-02-08 14:11:00,39.3,28.1,30.00,NNW,330,6.5,9.2,64,0.00,SCT,,0.08,141.0,WeatherDisplay:10.37,2013-02-08 13:11:00,
2013-02-08 14:16:00,39.1,28.3,30.00,NNW,329,7.2,10.4,65,0.00,SCT,,0.08,160.0,WeatherDisplay:10.37,2013-02-08 13:16:00,
2013-02-08 14:21:00,39.0,28.2,30.00,NNW,327,4.1,6.9,65,0.00,SCT,,0.08,125.0,WeatherDisplay:10.37,2013-02-08 13:21:00,
2013-02-08 14:26:00,38.9,28.5,30.00,NW,319,5.9,8.1,66,0.00,SCT,,0.08,134.0,WeatherDisplay:10.37,2013-02-08 13:26:00,
2013-02-08 14:31:00,38.9,28.5,30.00,NNW,329,5.6,6.9,66,0.00,SCT,,0.08,183.0,WeatherDisplay:10.37,2013-02-08 13:31:00,
2013-02-08 14:36:00,39.0,28.9,30.00,NNW,334,5.5,13.8,67,0.00,SCT,,0.08,206.0,WeatherDisplay:10.37,2013-02-08 13:36:00,
2013-02-08 14:41:00,39.1,29.0,30.00,NNW,327,2.2,4.6,67,0.00,SCT,,0.08,311.0,WeatherDisplay:10.37,2013-02-08 13:41:00,
2013-02-08 14:46:00,39.2,28.8,30.00,NW,321,9.2,11.5,66,0.00,SCT,,0.08,146.0,WeatherDisplay:10.37,2013-02-08 13:46:00,
2013-02-08 14:51:00,39.2,28.8,30.00,WNW,302,6.5,9.2,66,0.00,SCT,,0.08,121.0,WeatherDisplay:10.37,2013-02-08 13:51:00,
2013-02-08 14:56:00,39.0,28.9,30.00,North,351,2.2,9.2,67,0.00,SCT,,0.08,109.0,WeatherDisplay:10.37,2013-02-08 13:56:00,
2013-02-08 15:01:00,38.9,29.6,30.00,NNW,342,7.1,13.8,69,0.00,SCT,,0.08,116.0,WeatherDisplay:10.37,2013-02-08 14:01:00,
2013-02-08 15:06:00,38.7,30.4,30.00,NNW,346,7.2,10.4,72,0.00,SCT,,0.08,127.0,WeatherDisplay:10.37,2013-02-08 14:06:00,
2013-02-08 15:11:00,38.4,30.5,30.00,NNW,346,8.0,11.5,73,0.00,SCT,,0.08,146.0,WeatherDisplay:10.37,2013-02-08 14:11:00,
2013-02-08 15:16:00,38.4,31.1,30.00,North,351,4.7,5.8,75,0.00,SCT,,0.08,111.0,WeatherDisplay:10.37,2013-02-08 14:16:00,
2013-02-08 15:21:00,38.3,31.4,30.00,NNW,342,4.8,5.0,76,0.00,BKN,,0.08,63.0,WeatherDisplay:10.37,2013-02-08 14:21:00,
2013-02-08 15:26:00,38.0,31.4,30.00,NNW,334,5.6,9.2,77,0.00,BKN,,0.08,60.0,WeatherDisplay:10.37,2013-02-08 14:26:00,
2013-02-08 15:31:00,37.8,31.2,30.00,NW,326,5.0,6.9,77,0.00,BKN,,0.08,281.0,WeatherDisplay:10.37,2013-02-08 14:31:00,
2013-02-08 15:36:00,37.8,31.5,30.00,NNW,339,5.1,8.1,78,0.00,BKN,,0.08,341.0,WeatherDisplay:10.37,2013-02-08 14:36:00,
2013-02-08 15:41:00,38.2,31.9,30.00,NW,323,4.2,8.1,78,0.00,BKN,,0.08,438.0,WeatherDisplay:10.37,2013-02-08 14:41:00,
2013-02-08 15:46:00,38.6,32.0,30.00,North,1,3.4,6.9,77,0.00,BKN,,0.08,450.0,WeatherDisplay:10.37,2013-02-08 14:46:00,
2013-02-08 15:51:00,38.3,31.4,30.01,NNW,332,7.0,13.8,76,0.00,BKN,,0.08,264.0,WeatherDisplay:10.37,2013-02-08 14:51:00,
2013-02-08 15:56:00,37.4,31.1,30.01,North,6,8.1,13.8,78,0.00,BKN,,0.08,49.0,WeatherDisplay:10.37,2013-02-08 14:56:00,
2013-02-08 16:01:00,36.5,30.9,30.01,NNE,24,6.5,10.4,80,0.00,BKN,,0.08,18.0,WeatherDisplay:10.37,2013-02-08 15:01:00,
2013-02-08 16:06:00,36.1,31.1,30.01,North,356,5.7,6.9,82,0.00,BKN,,0.08,21.0,WeatherDisplay:10.37,2013-02-08 15:06:00,
2013-02-08 16:11:00,35.8,31.4,30.01,North,1,3.7,4.0,84,0.00,-SN,,0.08,32.0,WeatherDisplay:10.37,2013-02-08 15:11:00,
2013-02-08 16:16:00,35.8,31.7,30.01,North,1,0.0,0.0,85,0.00,-SN,,0.08,26.0,WeatherDisplay:10.37,2013-02-08 15:16:00,
2013-02-08 16:21:00,35.8,31.7,30.01,North,1,4.0,6.9,85,0.00,-SN,,0.08,25.0,WeatherDisplay:10.37,2013-02-08 15:21:00,
2013-02-08 16:26:00,35.8,31.7,30.01,North,1,0.5,2.3,85,0.00,-SN,,0.08,25.0,WeatherDisplay:10.37,2013-02-08 15:26:00,
2013-02-08 16:31:00,35.8,31.7,30.01,North,1,1.2,3.5,85,0.00,-SN,,0.08,30.0,WeatherDisplay:10.37,2013-02-08 15:31:00,
2013-02-08 16:36:00,35.9,31.8,30.01,North,1,1.7,3.5,85,0.00,-SN,,0.08,33.0,WeatherDisplay:10.37,2013-02-08 15:36:00,
2013-02-08 16:41:00,35.9,31.8,30.01,North,1,2.0,3.5,85,0.00,FEW,,0.08,46.0,WeatherDisplay:10.37,2013-02-08 15:41:00,
2013-02-08 16:46:00,35.9,31.5,30.01,North,1,2.1,3.5,84,0.00,FEW,,0.08,54.0,WeatherDisplay:10.37,2013-02-08 15:46:00,
2013-02-08 16:51:00,36.0,31.9,30.01,North,351,0.0,0.0,85,0.00,FEW,,0.08,47.0,WeatherDisplay:10.37,2013-02-08 15:51:00,
2013-02-08 16:56:00,36.1,31.7,30.01,North,351,0.0,0.0,84,0.00,FEW,,0.08,39.0,WeatherDisplay:10.37,2013-02-08 15:56:00,
2013-02-08 17:01:00,36.2,31.8,30.01,NNW,347,0.5,3.5,84,0.00,FEW,,0.08,30.0,WeatherDisplay:10.37,2013-02-08 16:01:00,
2013-02-08 17:06:00,36.3,31.9,30.01,NNW,347,1.0,3.5,84,0.00,FEW,,0.08,23.0,WeatherDisplay:10.37,2013-02-08 16:06:00,
2013-02-08 17:11:00,36.4,32.0,30.01,NNW,347,0.0,3.5,84,0.00,FEW,,0.08,19.0,WeatherDisplay:10.37,2013-02-08 16:11:00,
2013-02-08 17:16:00,36.4,32.0,30.01,NNW,346,4.7,5.8,84,0.00,FEW,,0.08,14.0,WeatherDisplay:10.37,2013-02-08 16:16:00,
2013-02-08 17:21:00,36.4,31.7,30.01,North,6,5.6,6.9,83,0.00,FEW,,0.08,11.0,WeatherDisplay:10.37,2013-02-08 16:21:00,
2013-02-08 17:26:00,36.5,31.2,30.01,NNE,14,2.7,4.6,81,0.00,FEW,,0.08,9.0,WeatherDisplay:10.37,2013-02-08 16:26:00,
2013-02-08 17:31:00,36.6,31.0,30.01,North,9,3.5,5.0,80,0.00,FEW,,0.08,7.0,WeatherDisplay:10.37,2013-02-08 16:31:00,
2013-02-08 17:36:00,36.6,31.0,30.02,North,5,2.5,3.5,80,0.00,FEW,,0.08,5.0,WeatherDisplay:10.37,2013-02-08 16:36:00,
2013-02-08 17:41:00,36.6,31.0,30.02,North,1,4.8,9.2,80,0.00,FEW,,0.08,0.0,WeatherDisplay:10.37,2013-02-08 16:41:00,
2013-02-08 17:46:00,36.6,30.7,30.02,NNE,12,4.0,6.9,79,0.00,FEW,,0.08,0.0,WeatherDisplay:10.37,2013-02-08 16:46:00,
2013-02-08 17:51:00,36.6,30.7,30.02,North,6,4.5,4.6,79,0.00,FEW,,0.08,0.0,WeatherDisplay:10.37,2013-02-08 16:51:00,
2013-02-08 17:56:00,36.4,30.5,30.02,North,6,1.6,5.0,79,0.00,FEW,,0.08,0.0,WeatherDisplay:10.37,2013-02-08 16:56:00,
2013-02-08 18:01:00,36.3,30.4,30.02,North,6,0.6,2.0,79,0.00,FEW,,0.08,0.0,WeatherDisplay:10.37,2013-02-08 17:01:00,
2013-02-08 18:06:00,36.2,30.3,30.02,North,7,0.2,2.3,79,0.00,FEW,,0.08,0.0,WeatherDisplay:10.37,2013-02-08 17:06:00,
2013-02-08 18:11:00,36.1,30.5,30.02,North,1,3.2,4.6,80,0.00,BKN,,0.08,0.0,WeatherDisplay:10.37,2013-02-08 17:11:00,
2013-02-08 18:16:00,36.0,30.1,30.02,North,1,1.8,4.0,79,0.00,BKN,,0.08,0.0,WeatherDisplay:10.37,2013-02-08 17:16:00,
2013-02-08 18:21:00,35.9,30.0,30.02,North,1,0.3,1.1,79,0.00,BKN,,0.08,0.0,WeatherDisplay:10.37,2013-02-08 17:21:00,
2013-02-08 18:26:00,35.8,30.2,30.03,North,1,0.7,3.5,80,0.00,BKN,,0.08,0.0,WeatherDisplay:10.37,2013-02-08 17:26:00,
2013-02-08 18:31:00,35.7,30.1,30.03,North,1,1.2,2.3,80,0.00,BKN,,0.08,0.0,WeatherDisplay:10.37,2013-02-08 17:31:00,
2013-02-08 18:36:00,35.6,30.0,30.03,North,1,0.0,0.0,80,0.00,BKN,,0.08,0.0,WeatherDisplay:10.37,2013-02-08 17:36:00,
2013-02-08 18:41:00,35.6,30.0,30.03,North,1,0.0,0.0,80,0.00,BKN,,0.08,0.0,WeatherDisplay:10.37,2013-02-08 17:41:00,
2013-02-08 18:46:00,35.4,29.8,30.03,North,1,0.3,1.1,80,0.00,BKN,,0.08,0.0,WeatherDisplay:10.37,2013-02-08 17:46:00,
2013-02-08 18:51:00,35.3,29.7,30.03,North,1,0.3,1.1,80,0.00,BKN,,0.08,0.0,WeatherDisplay:10.37,2013-02-08 17:51:00,
2013-02-08 18:56:00,35.2,29.9,30.03,North,1,0.0,0.0,81,0.00,BKN,,0.08,0.0,WeatherDisplay:10.37,2013-02-08 17:56:00,
2013-02-08 19:01:00,35.1,29.8,30.03,North,1,0.0,0.0,81,0.00,BKN,,0.08,0.0,WeatherDisplay:10.37,2013-02-08 18:01:00,
2013-02-08 19:06:00,35.0,29.7,30.04,North,1,0.0,3.5,81,0.00,BKN,,0.08,0.0,WeatherDisplay:10.37,2013-02-08 18:06:00,
2013-02-08 19:11:00,34.9,29.9,30.04,North,1,1.2,3.5,82,0.00,BKN,,0.08,0.0,WeatherDisplay:10.37,2013-02-08 18:11:00,
2013-02-08 19:16:00,34.8,29.8,30.04,North,1,2.2,3.5,82,0.00,BKN,,0.08,0.0,WeatherDisplay:10.37,2013-02-08 18:16:00,
2013-02-08 19:21:00,34.7,29.7,30.04,North,1,2.2,4.6,82,0.00,BKN,,0.08,0.0,WeatherDisplay:10.37,2013-02-08 18:21:00,
2013-02-08 19:26:00,34.8,29.8,30.04,North,1,0.4,3.5,82,0.00,BKN,,0.08,0.0,WeatherDisplay:10.37,2013-02-08 18:26:00,
2013-02-08 19:31:00,34.7,29.4,30.04,North,1,0.0,3.5,81,0.00,BKN,,0.08,0.0,WeatherDisplay:10.37,2013-02-08 18:31:00,
2013-02-08 19:36:00,34.7,29.4,30.05,North,1,0.0,0.0,81,0.00,BKN,,0.08,0.0,WeatherDisplay:10.37,2013-02-08 18:36:00,
2013-02-08 19:41:00,34.7,29.4,30.05,North,1,0.0,0.0,81,0.00,BKN,,0.08,0.0,WeatherDisplay:10.37,2013-02-08 18:41:00,
2013-02-08 19:46:00,34.7,29.4,30.05,North,1,0.6,2.3,81,0.00,BKN,,0.08,0.0,WeatherDisplay:10.37,2013-02-08 18:46:00,
2013-02-08 19:51:00,34.8,29.5,30.05,North,1,0.0,3.5,81,0.00,BKN,,0.08,0.0,WeatherDisplay:10.37,2013-02-08 18:51:00,
2013-02-08 19:56:00,34.8,29.2,30.05,North,1,0.0,0.0,80,0.00,BKN,,0.08,0.0,WeatherDisplay:10.37,2013-02-08 18:56:00,
2013-02-08 20:01:00,34.8,29.2,30.05,North,1,0.3,3.5,80,0.00,BKN,,0.08,0.0,WeatherDisplay:10.37,2013-02-08 19:01:00,
2013-02-08 20:06:00,34.8,29.2,30.05,North,1,0.0,0.0,80,0.00,BKN,,0.08,0.0,WeatherDisplay:10.37,2013-02-08 19:06:00,
2013-02-08 20:11:00,34.8,29.2,30.05,North,1,0.0,0.0,80,0.00,BKN,,0.08,0.0,WeatherDisplay:10.37,2013-02-08 19:11:00,
2013-02-08 20:16:00,34.7,29.1,30.05,North,1,0.0,0.0,80,0.00,BKN,,0.08,0.0,WeatherDisplay:10.37,2013-02-08 19:16:00,
2013-02-08 20:21:00,34.7,29.1,30.05,North,1,0.0,0.0,80,0.00,BKN,,0.08,0.0,WeatherDisplay:10.37,2013-02-08 19:21:00,
2013-02-08 20:26:00,34.6,29.3,30.05,North,1,0.0,0.0,81,0.00,BKN,,0.08,0.0,WeatherDisplay:10.37,2013-02-08 19:26:00,
2013-02-08 20:31:00,34.5,29.3,30.05,North,1,0.0,0.0,81,0.00,BKN,,0.08,0.0,WeatherDisplay:10.37,2013-02-08 19:31:00,
2013-02-08 20:36:00,34.4,29.2,30.06,North,1,0.0,0.0,81,0.00,BKN,,0.08,0.0,WeatherDisplay:10.37,2013-02-08 19:36:00,
2013-02-08 20:41:00,34.3,29.4,30.06,North,1,0.0,0.0,82,0.00,BKN,,0.08,0.0,WeatherDisplay:10.37,2013-02-08 19:41:00,
2013-02-08 20:46:00,34.2,29.3,30.06,North,1,0.0,0.0,82,0.00,BKN,,0.08,0.0,WeatherDisplay:10.37,2013-02-08 19:46:00,
2013-02-08 20:51:00,34.0,29.1,30.06,North,1,0.0,0.0,82,0.00,BKN,,0.08,0.0,WeatherDisplay:10.37,2013-02-08 19:51:00,
2013-02-08 20:56:00,33.9,29.3,30.06,North,1,0.0,0.0,83,0.00,BKN,,0.08,0.0,WeatherDisplay:10.37,2013-02-08 19:56:00,
2013-02-08 21:01:00,33.8,29.2,30.06,North,1,0.0,0.0,83,0.00,BKN,,0.08,0.0,WeatherDisplay:10.37,2013-02-08 20:01:00,
2013-02-08 21:06:00,33.8,29.2,30.06,North,1,0.0,0.0,83,0.00,BKN,,0.08,0.0,WeatherDisplay:10.37,2013-02-08 20:06:00,
2013-02-08 21:11:00,33.7,29.4,30.06,North,1,0.0,0.0,84,0.00,BKN,,0.08,0.0,WeatherDisplay:10.37,2013-02-08 20:11:00,
2013-02-08 21:16:00,34.0,29.7,30.06,North,7,1.4,4.6,84,0.00,BKN,,0.08,0.0,WeatherDisplay:10.37,2013-02-08 20:16:00,
2013-02-08 21:21:00,34.2,29.9,30.06,North,7,0.0,0.0,84,0.00,FEW,,0.08,0.0,WeatherDisplay:10.37,2013-02-08 20:21:00,
2013-02-08 21:26:00,34.2,29.9,30.06,North,7,0.0,0.0,84,0.00,FEW,,0.08,0.0,WeatherDisplay:10.37,2013-02-08 20:26:00,
2013-02-08 21:31:00,34.3,29.9,30.06,North,7,0.6,2.3,84,0.00,FEW,,0.08,0.0,WeatherDisplay:10.37,2013-02-08 20:31:00,
2013-02-08 21:36:00,34.3,29.9,30.06,North,7,0.0,0.0,84,0.00,FEW,,0.08,0.0,WeatherDisplay:10.37,2013-02-08 20:36:00,
2013-02-08 21:41:00,34.4,29.8,30.06,North,7,0.9,3.5,83,0.00,FEW,,0.08,0.0,WeatherDisplay:10.37,2013-02-08 20:41:00,
2013-02-08 21:46:00,34.5,29.8,30.06,North,7,0.0,2.3,83,0.00,FEW,,0.08,0.0,WeatherDisplay:10.37,2013-02-08 20:46:00,
2013-02-08 21:51:00,34.5,29.8,30.06,North,7,0.0,0.0,83,0.00,BKN,,0.08,0.0,WeatherDisplay:10.37,2013-02-08 20:51:00,
2013-02-08 21:56:00,34.4,29.5,30.06,North,7,0.0,0.0,82,0.00,BKN,,0.08,0.0,WeatherDisplay:10.37,2013-02-08 20:56:00,
2013-02-08 22:01:00,34.4,29.5,30.06,North,7,0.0,0.0,82,0.00,BKN,,0.08,0.0,WeatherDisplay:10.37,2013-02-08 21:01:00,
2013-02-08 22:06:00,34.2,29.3,30.07,North,7,0.0,0.0,82,0.00,BKN,,0.08,0.0,WeatherDisplay:10.37,2013-02-08 21:06:00,
2013-02-08 22:11:00,34.1,29.2,30.07,North,7,0.0,0.0,82,0.00,BKN,,0.08,0.0,WeatherDisplay:10.37,2013-02-08 21:11:00,
2013-02-08 22:16:00,34.0,29.1,30.07,North,7,0.0,0.0,82,0.00,BKN,,0.08,0.0,WeatherDisplay:10.37,2013-02-08 21:16:00,
2013-02-08 22:21:00,33.8,28.9,30.07,North,7,0.0,0.0,82,0.00,BKN,,0.08,0.0,WeatherDisplay:10.37,2013-02-08 21:21:00,
2013-02-08 22:26:00,33.7,28.8,30.07,North,7,0.0,0.0,82,0.00,BKN,,0.08,0.0,WeatherDisplay:10.37,2013-02-08 21:26:00,
2013-02-08 22:31:00,33.6,28.7,30.07,North,7,0.0,0.0,82,0.00,BKN,,0.08,0.0,WeatherDisplay:10.37,2013-02-08 21:31:00,
2013-02-08 22:36:00,33.4,28.5,30.07,North,7,0.0,0.0,82,0.00,BKN,,0.08,0.0,WeatherDisplay:10.37,2013-02-08 21:36:00,
2013-02-08 22:41:00,33.3,28.4,30.07,North,7,0.0,0.0,82,0.00,BKN,,0.08,0.0,WeatherDisplay:10.37,2013-02-08 21:41:00,
2013-02-08 22:46:00,33.2,28.3,30.07,North,7,0.0,0.0,82,0.00,BKN,,0.08,0.0,WeatherDisplay:10.37,2013-02-08 21:46:00,
2013-02-08 22:51:00,33.1,28.5,30.07,North,7,0.0,0.0,83,0.00,BKN,,0.08,0.0,WeatherDisplay:10.37,2013-02-08 21:51:00,
2013-02-08 22:56:00,33.0,28.4,30.07,North,7,0.0,0.0,83,0.00,BKN,,0.08,0.0,WeatherDisplay:10.37,2013-02-08 21:56:00,
2013-02-08 23:01:00,32.8,28.2,30.07,North,7,0.0,0.0,83,0.00,BKN,,0.08,0.0,WeatherDisplay:10.37,2013-02-08 22:01:00,
2013-02-08 23:06:00,32.6,28.0,30.07,North,7,0.0,0.0,83,0.00,BKN,,0.08,0.0,WeatherDisplay:10.37,2013-02-08 22:06:00,
2013-02-08 23:11:00,32.4,28.1,30.07,North,7,0.0,0.0,84,0.00,BKN,,0.08,0.0,WeatherDisplay:10.37,2013-02-08 22:11:00,
2013-02-08 23:16:00,32.1,27.8,30.07,North,7,0.0,0.0,84,0.00,BKN,,0.08,0.0,WeatherDisplay:10.37,2013-02-08 22:16:00,
2013-02-08 23:21:00,32.0,28.0,30.07,North,7,0.0,0.0,85,0.00,BKN,,0.08,0.0,WeatherDisplay:10.37,2013-02-08 22:21:00,
2013-02-08 23:26:00,31.9,27.9,30.07,North,7,0.0,0.0,85,0.00,BKN,,0.08,0.0,WeatherDisplay:10.37,2013-02-08 22:26:00,
2013-02-08 23:31:00,32.1,28.4,30.07,North,7,1.4,3.5,86,0.00,BKN,,0.08,0.0,WeatherDisplay:10.37,2013-02-08 22:31:00,
2013-02-08 23:36:00,32.5,29.0,30.07,North,7,0.0,0.0,87,0.00,BKN,,0.08,0.0,WeatherDisplay:10.37,2013-02-08 22:36:00,
2013-02-08 23:41:00,32.7,29.2,30.07,North,7,0.0,0.0,87,0.00,SCT,,0.08,0.0,WeatherDisplay:10.37,2013-02-08 22:41:00,
2013-02-08 23:46:00,32.8,29.3,30.08,North,7,0.0,0.0,87,0.00,SCT,,0.08,0.0,WeatherDisplay:10.37,2013-02-08 22:46:00,
2013-02-08 23:51:00,32.9,29.2,30.08,North,7,0.3,2.3,86,0.00,SCT,,0.08,0.0,WeatherDisplay:10.37,2013-02-08 22:51:00,
2013-02-08 23:56:00,33.2,29.4,30.08,North,7,0.0,1.1,86,0.00,SCT,,0.08,0.0,WeatherDisplay:10.37,2013-02-08 22:56:00,